This is the latest recevied weather packets stored in our database for station/object KQ7A. If no packets are shown the sender has not sent any weather packets the latest 10 day(s).
| Time | Temp. | Humidity | Pressure | Rain* | Wind** | Luminosity | Snow |
|---|---|---|---|---|---|---|---|
| 1787938088 | 17.78° C | 73% | 1023.6 hPa | 0 mm | - | 85 W/m² | - |
| 1787937783 | 17.22° C | 72% | 1023.5 hPa | 0 mm | - | 82 W/m² | - |
| 1787937479 | 17.78° C | 75% | 1023.5 hPa | 0 mm | - | 66 W/m² | - |
| 1787937175 | 17.78° C | 64% | 1023.5 hPa | 0 mm | - | 56 W/m² | - |
| 1787936875 | 17.78° C | 65% | 1023.3 hPa | 0 mm | - | 62 W/m² | - |
| 1787936574 | 18.33° C | 59% | 1023 hPa | 0 mm | - | 69 W/m² | - |
| 1787936274 | 18.33° C | 56% | 1023.3 hPa | 0 mm | - | 65 W/m² | - |
| 1787935969 | 18.89° C | 60% | 1023.3 hPa | 0 mm | - | 49 W/m² | - |
| 1787935664 | 19.44° C | 50% | 1022.9 hPa | 0 mm | - | 43 W/m² | - |
| 1787935361 | 19.44° C | 45% | 1022.6 hPa | 0 mm | - | 38 W/m² | - |
| 1787935057 | 19.44° C | 49% | 1022.4 hPa | 0 mm | - | 43 W/m² | - |
| 1787934752 | 19.44° C | 49% | 1022.3 hPa | 0 mm | - | 68 W/m² | - |
| 1787934450 | 19.44° C | 48% | 1022.2 hPa | 0 mm | - | 100 W/m² | - |
| 1787934145 | 18.89° C | 50% | 1022.2 hPa | 0 mm | - | 110 W/m² | - |
| 1787933844 | 18.89° C | 47% | 1022.2 hPa | 0 mm | - | 105 W/m² | - |
| 1787933539 | 18.33° C | 47% | 1022.6 hPa | 0 mm | - | 85 W/m² | - |
| 1787933234 | 18.33° C | 55% | 1022.1 hPa | 0 mm | - | 93 W/m² | - |
| 1787932927 | 17.78° C | 55% | 1021.8 hPa | 0 mm | - | 121 W/m² | - |
| 1787932626 | 17.22° C | 59% | 1021.4 hPa | 0 mm | - | 147 W/m² | - |
| 1787932322 | 16.67° C | 66% | 1021.8 hPa | 0 mm | - | 144 W/m² | - |
| 1787932016 | 16.67° C | 69% | 1021.9 hPa | 0 mm | - | 74 W/m² | - |
| 1787931715 | 16.11° C | 65% | 1021.9 hPa | 0 mm | - | 49 W/m² | - |
| 1787931415 | 16.67° C | 70% | 1022 hPa | 0 mm | - | 38 W/m² | - |
| 1787931110 | 16.11° C | 70% | 1021.9 hPa | 0 mm | - | 44 W/m² | - |
| 1787930809 | 16.11° C | 66% | 1022 hPa | 0 mm | - | 49 W/m² | - |
* Rain latest hour (hover to see other rain measurements)
** Current wind speed in m/s (hover to see current wind gust speed)